Location: Haliburton Scout Reserve
(45.0900°N, 78.3200°W)
Time: 02:18:35
(UTC-04:00)

ESTCUBE 1 - Pass Details

Date: 25 May 2022
Orbit: 644 x 659 km, 97.9° (Epoch: 27 June)

Event Time Altitude Azimuth Distance (km) Brightness Sun altitude
Exits shadow 21:55:46 - 99° (E) 2,178 ? -10.4°
Reaches altitude 10° 21:56:15 10° 95° (E) 2,062 ? -10.4°
Maximum altitude 21:58:44 15° 61° (ENE) 1,760 ? -10.8°
Drops below altitude 10° 22:01:13 10° 27° (NNE) 2,065 ? -11.1°
Sets 22:04:18 0° 4° (N) 2,978 ? -11.4°
